Date String (YYYY-MM-DD hh:mm:ss) UTC,Instrument flags,Ambient pressure (hPa),Sample flow (lpm),Bypass flow (lpm),Sample temperature (°C),Ambient temperature (°C),ASC tube jacket temperature (°C),LED temperature (°C),Box temperature (°C),Sample RH (%),Mass concentration (μg/m³),Mass concentration (μg/m³)
DateTimeUTC,F1_M11,P_M11,Q1_M11,Q2_M11,T1_M11,T2_M11,T3_M11,T4_M11,T5_M11,U1_M11,X0_M11,X2_M11
2021-08-15 17:00:00,,0830.6,5.01,0.00,29.3,26.8,00.0,38.4,30.9,23.6,0014.36,0008.32
2021-08-15 17:01:00,,0830.6,4.99,0.00,29.3,27.2,00.0,38.4,31.0,23.8,0013.53,0008.28
2021-08-15 17:02:00,,0830.6,5.00,0.00,29.3,27.6,00.0,38.4,31.1,24.1,0013.35,0008.27
2021-08-15 17:03:00,,0830.6,5.00,0.00,29.4,27.9,00.0,38.4,31.2,24.0,0013.48,0008.29
2021-08-15 17:04:00,,0830.6,4.99,0.00,29.4,28.2,00.0,38.4,31.3,24.2,0013.71,0008.30
2021-08-15 17:05:00,,0830.6,5.01,0.00,29.5,28.4,00.0,38.4,31.4,24.6,0013.98,0008.33
2021-08-15 17:06:00,,0830.6,4.99,0.00,29.6,28.5,00.0,38.5,31.5,24.3,0013.66,0008.34
2021-08-15 17:07:00,,0830.6,5.00,0.00,29.5,27.4,00.0,38.5,31.1,24.0,0012.93,0008.37
2021-08-15 17:08:00,,0830.6,5.00,0.00,29.4,26.2,00.0,38.4,30.7,24.3,0013.13,0008.36
2021-08-15 17:09:00,,0830.6,4.99,0.00,29.3,26.4,00.0,38.4,30.8,24.7,0013.47,0008.37
2021-08-15 17:10:00,,0830.6,5.00,0.00,29.3,26.8,00.0,38.4,30.9,24.9,0013.64,0008.37
2021-08-15 17:11:00,,0830.6,5.00,0.00,29.3,27.2,00.0,38.4,31.0,24.8,0014.05,0008.35
2021-08-15 17:12:00,,0830.6,5.00,0.00,29.3,27.6,00.0,38.4,31.1,24.7,0013.98,0008.33
2021-08-15 17:13:00,,0830.6,5.00,0.00,29.4,27.9,00.0,38.4,31.2,24.3,0016.16,0008.30
2021-08-15 17:14:00,,0830.6,4.99,0.00,29.4,28.1,00.0,38.4,31.3,24.2,0016.98,0008.28
2021-08-15 17:15:00,,0830.7,5.00,0.00,29.4,27.2,00.0,38.4,31.0,23.9,0016.92,0008.24
2021-08-15 17:16:00,,0830.7,5.01,0.00,29.3,26.0,00.0,38.4,30.6,23.7,0016.91,0008.15
2021-08-15 17:17:00,,0830.7,4.99,0.00,29.2,26.3,00.0,38.4,30.7,23.1,0016.61,0008.07
2021-08-15 17:18:00,,0830.7,5.01,0.00,29.2,26.7,00.0,38.3,30.8,22.7,0016.56,0008.00
2021-08-15 17:19:00,,0830.8,5.01,0.00,29.2,27.1,00.0,38.3,30.9,22.6,0016.14,0007.95
2021-08-15 17:20:00,,0830.8,5.00,0.00,29.2,27.5,00.0,38.3,31.0,22.6,0015.83,0007.94
2021-08-15 17:21:00,,0830.8,4.99,0.00,29.3,27.8,00.0,38.3,31.1,21.9,0016.24,0007.93
2021-08-15 17:22:00,,0830.8,5.00,0.00,29.3,28.1,00.0,38.3,31.2,21.2,0015.89,0007.91
2021-08-15 17:23:00,,0830.7,4.99,0.00,29.4,28.3,00.0,38.3,31.3,20.5,0017.21,0007.88
2021-08-15 17:24:00,,0830.8,5.02,0.00,29.4,28.1,00.0,38.3,31.2,20.6,0015.51,0007.81
2021-08-15 17:25:00,,0830.8,5.00,0.00,29.3,26.6,00.0,38.3,30.7,20.9,0014.42,0007.76
2021-08-15 17:26:00,,0830.8,5.01,0.00,29.2,25.9,00.0,38.3,30.5,21.6,0014.10,0007.72
2021-08-15 17:27:00,,0830.9,5.01,0.00,29.1,26.3,00.0,38.3,30.7,21.7,0013.51,0007.67
2021-08-15 17:28:00,,0830.9,5.00,0.00,29.1,26.7,00.0,38.3,30.8,20.4,0013.53,0007.63
2021-08-15 17:29:00,,0830.9,5.00,0.00,29.1,27.1,00.0,38.2,30.9,21.2,0013.68,0007.60
2021-08-15 17:30:00,,0830.9,5.01,0.00,29.2,27.5,00.0,38.2,31.0,21.8,0013.77,0007.62
2021-08-15 17:31:00,,0830.9,5.00,0.00,29.2,27.8,00.0,38.2,31.1,22.4,0014.48,0007.58
2021-08-15 17:32:00,,0830.9,5.01,0.00,29.3,28.1,00.0,38.3,31.2,22.2,0014.43,0007.59
2021-08-15 17:33:00,,0830.9,5.00,0.00,29.3,28.3,00.0,38.3,31.3,22.8,0013.99,0007.59
2021-08-15 17:34:00,,0830.9,4.99,0.00,29.4,28.5,00.0,38.3,31.3,22.8,0013.19,0007.65
2021-08-15 17:35:00,,0830.9,5.01,0.00,29.4,27.7,00.0,38.3,31.1,23.4,0014.37,0007.75
2021-08-15 17:36:00,,0830.9,4.99,0.00,29.3,26.2,00.0,38.3,30.7,23.5,0014.79,0007.78
2021-08-15 17:37:00,,0830.9,5.01,0.00,29.2,26.2,00.0,38.3,30.7,23.2,0014.89,0007.82
2021-08-15 17:38:00,,0830.9,4.99,0.00,29.2,26.6,00.0,38.3,30.7,23.3,0015.04,0007.91
2021-08-15 17:39:00,,0830.9,4.99,0.00,29.1,27.0,00.0,38.2,30.9,23.7,0015.43,0008.03
2021-08-15 17:40:00,,0830.9,5.00,0.00,29.2,27.4,00.0,38.2,31.0,24.4,0016.06,0008.11
2021-08-15 17:41:00,,0830.9,5.00,0.00,29.2,27.7,00.0,38.2,31.0,24.4,0016.10,0008.14
2021-08-15 17:42:00,,0830.9,5.00,0.00,29.3,28.0,00.0,38.2,31.1,23.8,0015.42,0008.20
2021-08-15 17:43:00,,0830.9,5.01,0.00,29.3,28.2,00.0,38.3,31.2,23.5,0015.24,0008.25
2021-08-15 17:44:00,,0830.9,4.99,0.00,29.4,28.3,00.0,38.3,31.3,24.1,0015.30,0008.25
2021-08-15 17:45:00,,0830.9,5.01,0.00,29.3,27.1,00.0,38.3,30.9,25.1,0015.38,0008.30
2021-08-15 17:46:00,,0830.9,4.99,0.00,29.2,26.1,00.0,38.3,30.6,25.0,0013.89,0008.32
2021-08-15 17:47:00,,0830.8,5.00,0.00,29.2,26.4,00.0,38.3,30.7,25.1,0014.62,0008.38
2021-08-15 17:48:00,,0830.8,5.00,0.00,29.1,26.8,00.0,38.2,30.8,25.3,0015.04,0008.44
2021-08-15 17:49:00,,0830.8,5.01,0.00,29.1,27.2,00.0,38.2,30.9,23.9,0015.50,0008.46
2021-08-15 17:50:00,,0830.8,5.00,0.00,29.2,27.5,00.0,38.2,31.0,21.1,0016.03,0008.46
2021-08-15 17:51:00,,0830.8,5.01,0.00,29.2,27.9,00.0,38.2,31.1,21.0,0015.17,0008.44
2021-08-15 17:52:00,,0830.8,5.00,0.00,29.3,28.0,00.0,38.3,31.1,21.3,0016.05,0008.45
2021-08-15 17:53:00,,0830.8,5.01,0.00,29.3,26.8,00.0,38.2,30.8,21.0,0016.94,0008.48
2021-08-15 17:54:00,,0830.8,5.00,0.00,29.1,25.9,00.0,38.2,30.5,21.3,0017.37,0008.50
2021-08-15 17:55:00,,0830.8,4.99,0.00,29.1,26.2,00.0,38.2,30.6,21.4,0017.41,0008.51
2021-08-15 17:56:00,,0830.8,5.01,0.00,29.0,26.6,00.0,38.2,30.7,21.3,0017.55,0008.47
2021-08-15 17:57:00,,0830.8,5.00,0.00,29.0,27.0,00.0,38.1,30.8,21.2,0018.37,0008.48
2021-08-15 17:58:00,,0830.7,5.00,0.00,29.1,27.4,00.0,38.1,30.9,21.0,0017.29,0008.47
2021-08-15 17:59:00,,0830.8,5.00,0.00,29.1,27.7,00.0,38.1,31.0,21.1,0017.03,0008.43
